Weather History for Moultrie, GA

Change the Weather History Date:

Thursday, December 6, 2012

  Actual Average (KMUL) Record (KMUL)
Temperature  
Mean Temperature 68 °F -  
Max Temperature 77 °F 65 °F 80 °F (1943)
Min Temperature 60 °F 41 °F 27 °F (1937)
Cooling Degree Days 4    
Growing Degree Days 18 (Base 50)    
Moisture  
Dew Point 60 °F    
Average Humidity 75    
Maximum Humidity 94    
Minimum Humidity 54    
Precipitation  
Precipitation 0.00 in - - ()
Sea Level Pressure  
Sea Level Pressure 30.06 in    
Wind  
Wind Speed 5 mph (ENE)    
Max Wind Speed 12 mph    
Max Gust Speed 16 mph    
Visibility 10 miles    
Events      
Averages and records for this station are not official NWS values.
T = Trace of Precipitation, MM = Missing Value Source: NWS Daily Summary

Daily Weather History Graph

Daily Weather History Graph

Search for Another Location

Airport:

Trip Planner

Search our weather history database for the weather conditions in past years. The results will help you decide how hot, cold, wet, or windy it might be!

Date:

Astronomy

Dec. 06, 2012 Rise Set
Actual Time 7:20 AM EST 5:32 PM EST
Civil Twilight 6:53 AM EST 5:59 PM EST
Nautical Twilight 6:23 AM EST 6:29 PM EST
Astronomical Twilight 5:54 AM EST 6:58 PM EST
Moon 12:01 AM EST (12/6) 12:34 PM EST (12/6)
Length of Visible Light 11h 05m
Length of Day
10h 12m
Waning Gibbous, 49% of the Moon is Illuminated
Dec 6
Waning Gibbous
Dec 13
New
Dec 20
First Quarter
Dec 28
Full
Jan 4
Last Quarter

Hourly Weather History & Observations

Time (EST) Temp. Dew Point Humidity Pressure Visibility Wind Dir Wind Speed Gust Speed Precip Events Conditions
8:35 AM 60.8 °F 57.2 °F 88% 30.11 in 10.0 mi Calm Calm - N/A   Overcast
8:55 AM 60.8 °F 59.0 °F 94% 30.12 in 10.0 mi NE 3.5 mph - N/A   Overcast
9:15 AM 62.6 °F 59.0 °F 88% 30.12 in 10.0 mi NE 4.6 mph - N/A   Overcast
9:35 AM 64.4 °F 59.0 °F 83% 30.12 in 10.0 mi NE 4.6 mph - N/A   Overcast
9:55 AM 66.2 °F 59.0 °F 78% 30.12 in 10.0 mi East 4.6 mph - N/A   Scattered Clouds
10:15 AM 68.0 °F 59.0 °F 73% 30.13 in 10.0 mi ENE 5.8 mph - N/A   Mostly Cloudy
10:35 AM 68.0 °F 59.0 °F 73% 30.12 in 10.0 mi ENE 4.6 mph - N/A   Scattered Clouds
10:55 AM 69.8 °F 59.0 °F 68% 30.11 in 10.0 mi ENE 5.8 mph - N/A   Clear
11:15 AM 71.6 °F 59.0 °F 64% 30.10 in 10.0 mi ESE 9.2 mph 16.1 mph N/A   Scattered Clouds
11:35 AM 73.4 °F 59.0 °F 61% 30.10 in 10.0 mi East 11.5 mph 16.1 mph N/A   Scattered Clouds
11:55 AM 73.4 °F 59.0 °F 61% 30.08 in 10.0 mi East 6.9 mph - N/A   Mostly Cloudy
12:15 PM 73.4 °F 59.0 °F 61% 30.07 in 10.0 mi ESE 9.2 mph - N/A   Scattered Clouds
12:35 PM 73.4 °F 59.0 °F 61% 30.06 in 10.0 mi ESE 5.8 mph - N/A   Scattered Clouds
12:55 PM 75.2 °F 59.0 °F 57% 30.05 in 10.0 mi ENE 4.6 mph - N/A   Scattered Clouds
1:15 PM 77.0 °F 59.0 °F 54% 30.05 in 10.0 mi ENE 5.8 mph - N/A   Mostly Cloudy
1:35 PM 75.2 °F 59.0 °F 57% 30.04 in 10.0 mi East 8.1 mph - N/A   Mostly Cloudy
1:55 PM 77.0 °F 59.0 °F 54% 30.03 in 10.0 mi ENE 4.6 mph - N/A   Scattered Clouds
2:15 PM 73.4 °F 59.0 °F 61% 30.03 in 10.0 mi ESE 4.6 mph - N/A   Scattered Clouds
2:35 PM 75.2 °F 59.0 °F 57% 30.02 in 10.0 mi NE 4.6 mph - N/A   Mostly Cloudy
2:55 PM 73.4 °F 59.0 °F 61% 30.02 in 10.0 mi East 3.5 mph - N/A   Overcast
3:15 PM 73.4 °F 59.0 °F 61% 30.02 in 10.0 mi NE 4.6 mph - N/A   Overcast
3:35 PM 73.4 °F 59.0 °F 61% 30.02 in 10.0 mi ENE 5.8 mph - N/A   Overcast
3:55 PM 73.4 °F 60.8 °F 65% 30.03 in 10.0 mi ENE 6.9 mph - N/A   Overcast
4:15 PM 71.6 °F 60.8 °F 69% 30.03 in 10.0 mi NE 6.9 mph - N/A   Overcast
4:35 PM 71.6 °F 60.8 °F 69% 30.03 in 10.0 mi East 4.6 mph - N/A   Overcast
4:55 PM 71.6 °F 60.8 °F 69% 30.03 in 10.0 mi ENE 4.6 mph - N/A   Scattered Clouds
5:15 PM 69.8 °F 60.8 °F 73% 30.03 in 10.0 mi ENE 5.8 mph - N/A   Clear
5:35 PM 69.8 °F 60.8 °F 73% 30.04 in 10.0 mi ENE 5.8 mph - N/A   Mostly Cloudy
5:55 PM 69.8 °F 60.8 °F 73% 30.05 in 10.0 mi ENE 5.8 mph - N/A   Mostly Cloudy
6:15 PM 69.8 °F 60.8 °F 73% 30.05 in 10.0 mi ENE 5.8 mph - N/A   Mostly Cloudy
6:35 PM 68.0 °F 60.8 °F 78% 30.05 in - East 8.1 mph - N/A   Mostly Cloudy
6:55 PM 68.0 °F 60.8 °F 78% 30.06 in - ENE 5.8 mph - N/A   Mostly Cloudy
7:15 PM 66.2 °F 60.8 °F 83% 30.05 in - ENE 4.6 mph - N/A   Scattered Clouds
7:35 PM 64.4 °F 60.8 °F 88% 30.06 in - NE 3.5 mph - N/A   Unknown
7:55 PM 64.4 °F 60.8 °F 88% 30.06 in - ENE 4.6 mph - N/A   Unknown
8:15 PM 64.4 °F 60.8 °F 88% 30.08 in - ENE 4.6 mph - N/A   Unknown
8:35 PM 64.4 °F 60.8 °F 88% 30.07 in 10.0 mi ENE 4.6 mph - N/A   Scattered Clouds
8:55 PM 64.4 °F 60.8 °F 88% 30.07 in 10.0 mi ENE 3.5 mph - N/A   Overcast
9:35 PM 62.6 °F 60.8 °F 94% 30.07 in 10.0 mi ENE 4.6 mph - N/A   Scattered Clouds
9:55 PM 62.6 °F 60.8 °F 94% 30.07 in 10.0 mi Calm Calm - N/A   Scattered Clouds
10:15 PM 62.6 °F 60.8 °F 94% 30.07 in 10.0 mi ENE 3.5 mph - N/A   Mostly Cloudy
10:35 PM 62.6 °F 60.8 °F 94% 30.07 in 10.0 mi East 5.8 mph - N/A   Overcast
10:55 PM 62.6 °F 60.8 °F 94% 30.07 in - East 6.9 mph - N/A   Overcast
11:15 PM 64.4 °F 60.8 °F 88% 30.07 in - East 9.2 mph 16.1 mph N/A   Overcast
11:35 PM 64.4 °F 60.8 °F 88% 30.06 in 10.0 mi East 4.6 mph - N/A   Overcast
11:55 PM 64.4 °F 60.8 °F 88% 30.05 in - East 5.8 mph - N/A   Overcast